Weather in Wengen

Switzerland     46°36′17″N   7°55′16″E
temp.,
°C
wind,
m/s
gust,
m/s
humid.,
%
clouds,
%
prec.,
mm/h
press.,
hPa
HPBL,
m
18 january, mon
mon1801:00−16nw339289 1.7 102826
04:00−16nnw339785 0.0 102827
07:00−17nnw339686 0.1 102922
10:00−14nnw339586 0.1 1029102
13:00−10nw337757 0.1 1027273
16:00−12nw22830 0.0 102722
19:00−14nw225520 0.0 102921
22:00−13wnw1254100 0.0 102821
19 january, tue
tue1901:00−12wnw1253100 0.0 102821
04:00−11w125494 0.0 102621
07:00−10w224489 0.0 102521
10:00−6wsw2253100 0.0 102421
13:00−3wsw226294 0.0 1022183
16:00−6sw126472 0.0 102021
19:00−9sw124181 0.0 102121
22:00−9ssw124346 0.0 102021
20 january, wed
wed2001:00−9ssw123963 0.0 102021
04:00−9ssw1239100 0.0 101921
07:00−9sse223471 0.0 101821
10:00−7se335365 0.0 101628
13:00−7se447938 0.0 1014120
16:00−11se659192 0.0 1012111
19:00−13se659296 0.1 101392
22:00−11se6694100 0.1 1012136
21 january, thu
thu2101:00−11se6594100 0.1 1011131
04:00−11se5592100 0.1 101098
07:00−10se5592100 0.3 1010101
10:00−9sse5594100 0.0 1009138
13:00−7sse559383 0.1 1007209
16:00−8sse559486 0.1 1006156
19:00−10se559593 0.1 1005120
22:00−9se5592100 0.1 1004103
22 january, fri
fri2201:00−8se4491100 1.0 100286
04:00−10sse3392100 0.4 100029
07:00−9wsw117999 0.4 99921
10:00−6wnw0186100 0.1 100082
13:00−10nw5594100 3.3 1002466
16:00−10nw4492100 1.3 1003384
19:00−15wnw338391 1.3 100622
22:00−13wnw3393100 0.1 100826